Precipitable_Water
0.37 0.37 0.36 0.36 0.33 0.31 0.29 0.27 0.26 0.24 0.26 0.26 0.32 0.28 0.22 0.17 0.16 0.18 0.22 0.24 0.22 0.18 0.11 0.14 0.13 0.12 0.15 0.20 0.17 0.19 0.17 0.16 0.17 0.16 0.18 0.16 0.19 0.17 0.17 0.17 0.15 0.16 0.17 0.16 0.15 0.16 0.14 0.15 0.14 0.16 0.16 0.17 0.19 0.23 0.23 0.25 0.22 0.21 0.19 0.21 0.21 0.22 0.17 0.15 0.15 0.19 0.20 0.21 0.23 0.23 0.23 0.22 0.20 0.21 0.22 0.21 0.19 0.20 0.18 0.17 0.18 0.16 0.18 0.17 0.16 0.15 0.17
0.38 0.37 0.36 0.34 0.31 0.29 0.28 0.26 0.25 0.27 0.27 0.26 0.29 0.23 0.16 0.15 0.15 0.19 0.23 0.21 0.20 0.15 0.11 0.11 0.10 0.12 0.15 0.17 0.14 0.19 0.17 0.16 0.14 0.15 0.16 0.16 0.15 0.17 0.16 0.17 0.19 0.16 0.18 0.17 0.15 0.18 0.13 0.18 0.16 0.16 0.17 0.17 0.24 0.24 0.24 0.24 0.20 0.21 0.20 0.17 0.23 0.16 0.18 0.16 0.13 0.14 0.15 0.17 0.19 0.19 0.21 0.21 0.19 0.19 0.21 0.21 0.22 0.21 0.21 0.21 0.20 0.16 0.18 0.18 0.16 0.13 0.17
0.37 0.36 0.34 0.31 0.29 0.29 0.27 0.27 0.26 0.28 0.30 0.29 0.25 0.19 0.19 0.15 0.16 0.15 0.17 0.21 0.17 0.11 0.19 0.12 0.10 0.10 0.11 0.11 0.11 0.12 0.13 0.17 0.18 0.16 0.15 0.17 0.16 0.16 0.16 0.19 0.19 0.17 0.19 0.18 0.18 0.19 0.17 0.14 0.18 0.17 0.17 0.18 0.23 0.24 0.24 0.25 0.22 0.24 0.24 0.23 0.25 0.18 0.17 0.16 0.13 0.11 0.10 0.10 0.11 0.13 0.15 0.18 0.20 0.21 0.21 0.21 0.21 0.20 0.20 0.17 0.18 0.15 0.18 0.19 0.17 0.15 0.19
0.35 0.33 0.31 0.29 0.28 0.29 0.28 0.27 0.28 0.30 0.31 0.30 0.29 0.20 0.16 0.15 0.10 0.17 0.15 0.17 0.16 0.15 0.18 0.15 0.11 0.10 0.10 0.09 0.11 0.12 0.10 0.14 0.17 0.17 0.15 0.17 0.16 0.18 0.18 0.18 0.19 0.17 0.17 0.16 0.16 0.17 0.19 0.16 0.16 0.16 0.16 0.18 0.22 0.23 0.24 0.24 0.24 0.25 0.24 0.23 0.23 0.18 0.20 0.19 0.17 0.16 0.15 0.16 0.18 0.21 0.21 0.20 0.18 0.20 0.21 0.21 0.21 0.22 0.21 0.20 0.18 0.16 0.18 0.17 0.19 0.20 0.19
0.32 0.31 0.30 0.29 0.30 0.30 0.29 0.28 0.28 0.28 0.28 0.26 0.24 0.22 0.14 0.12 0.09 0.10 0.10 0.12 0.13 0.12 0.13 0.12 0.12 0.09 0.11 0.08 0.10 0.09 0.11 0.12 0.12 0.18 0.12 0.16 0.16 0.16 0.17 0.17 0.15 0.16 0.16 0.16 0.17 0.19 0.18 0.19 0.17 0.17 0.17 0.19 0.21 0.24 0.24 0.24 0.25 0.25 0.24 0.24 0.21 0.19 0.17 0.19 0.20 0.19 0.19 0.20 0.20 0.21 0.21 0.19 0.20 0.20 0.20 0.21 0.21 0.21 0.20 0.19 0.18 0.21 0.18 0.14 0.20 0.22 0.20
0.31 0.30 0.30 0.30 0.30 0.30 0.30 0.29 0.26 0.28 0.27 0.27 0.27 0.17 0.16 0.11 0.17 0.15 0.14 0.10 0.10 0.09 0.09 0.13 0.11 0.12 0.12 0.11 0.11 0.09 0.10 0.10 0.09 0.13 0.16 0.17 0.17 0.14 0.15 0.16 0.17 0.17 0.16 0.18 0.15 0.17 0.17 0.18 0.16 0.18 0.18 0.18 0.20 0.20 0.24 0.22 0.24 0.25 0.23 0.25 0.21 0.18 0.16 0.20 0.20 0.19 0.21 0.21 0.21 0.22 0.21 0.21 0.20 0.21 0.21 0.20 0.21 0.21 0.19 0.20 0.21 0.21 0.18 0.16 0.19 0.21 0.20
0.31 0.31 0.31 0.31 0.31 0.30 0.29 0.28 0.27 0.26 0.24 0.25 0.22 0.16 0.18 0.15 0.13 0.12 0.16 0.11 0.10 0.10 0.13 0.13 0.11 0.10 0.10 0.09 0.10 0.09 0.09 0.09 0.12 0.11 0.12 0.14 0.13 0.15 0.12 0.14 0.15 0.17 0.19 0.17 0.16 0.18 0.14 0.15 0.19 0.17 0.17 0.17 0.18 0.17 0.20 0.24 0.26 0.24 0.22 0.22 0.22 0.20 0.17 0.20 0.21 0.19 0.20 0.21 0.22 0.22 0.21 0.20 0.20 0.21 0.21 0.21 0.21 0.20 0.21 0.20 0.21 0.21 0.20 0.21 0.20 0.20 0.20
0.31 0.31 0.30 0.29 0.29 0.28 0.27 0.27 0.26 0.25 0.23 0.22 0.18 0.18 0.14 0.12 0.09 0.11 0.13 0.11 0.09 0.10 0.10 0.12 0.10 0.08 0.09 0.07 0.08 0.09 0.09 0.09 0.12 0.14 0.12 0.10 0.12 0.17 0.13 0.14 0.16 0.17 0.18 0.17 0.16 0.18 0.19 0.18 0.16 0.19 0.17 0.17 0.18 0.17 0.18 0.19 0.24 0.24 0.21 0.21 0.23 0.19 0.17 0.21 0.20 0.18 0.19 0.21 0.22 0.22 0.21 0.20 0.18 0.21 0.21 0.21 0.21 0.21 0.21 0.21 0.21 0.22 0.21 0.21 0.21 0.20 0.19
0.29 0.29 0.28 0.27 0.27 0.27 0.27 0.27 0.27 0.25 0.25 0.17 0.17 0.18 0.16 0.17 0.17 0.15 0.10 0.08 0.08 0.08 0.09 0.08 0.10 0.08 0.08 0.07 0.10 0.09 0.10 0.10 0.12 0.12 0.16 0.13 0.12 0.13 0.13 0.16 0.17 0.18 0.17 0.17 0.18 0.22 0.21 0.20 0.20 0.20 0.19 0.16 0.21 0.18 0.19 0.22 0.19 0.21 0.21 0.21 0.22 0.21 0.18 0.21 0.20 0.17 0.17 0.20 0.20 0.20 0.20 0.19 0.18 0.19 0.20 0.20 0.20 0.19 0.20 0.20 0.21 0.21 0.20 0.20 0.20 0.18 0.19
0.28 0.27 0.26 0.26 0.26 0.26 0.26 0.26 0.26 0.25 0.25 0.22 0.18 0.13 0.18 0.16 0.17 0.17 0.15 0.09 0.09 0.08 0.08 0.08 0.08 0.06 0.11 0.10 0.10 0.08 0.09 0.13 0.13 0.09 0.14 0.14 0.18 0.16 0.17 0.17 0.16 0.16 0.16 0.16 0.19 0.23 0.23 0.23 0.23 0.23 0.23 0.23 0.22 0.23 0.22 0.22 0.21 0.20 0.20 0.23 0.20 0.20 0.19 0.18 0.18 0.16 0.16 0.20 0.21 0.19 0.19 0.18 0.16 0.17 0.19 0.21 0.21 0.21 0.21 0.21 0.22 0.22 0.22 0.18 0.17 0.17 0.22
0.26 0.26 0.26 0.25 0.25 0.25 0.25 0.24 0.25 0.26 0.23 0.17 0.16 0.17 0.14 0.13 0.11 0.11 0.11 0.08 0.08 0.09 0.08 0.07 0.07 0.12 0.11 0.12 0.09 0.11 0.11 0.12 0.13 0.08 0.10 0.15 0.14 0.17 0.18 0.16 0.14 0.15 0.16 0.22 0.28 0.27 0.25 0.25 0.25 0.25 0.24 0.23 0.23 0.23 0.23 0.23 0.24 0.23 0.21 0.20 0.21 0.21 0.20 0.18 0.21 0.16 0.16 0.19 0.19 0.20 0.16 0.11 0.13 0.20 0.23 0.22 0.20 0.20 0.19 0.19 0.20 0.22 0.22 0.19 0.20 0.21 0.23
0.24 0.24 0.23 0.23 0.22 0.22 0.22 0.23 0.24 0.25 0.24 0.28 0.23 0.19 0.19 0.18 0.16 0.14 0.11 0.06 0.08 0.10 0.07 0.07 0.07 0.10 0.09 0.10 0.11 0.09 0.09 0.10 0.11 0.13 0.11 0.14 0.16 0.15 0.17 0.17 0.16 0.13 0.22 0.27 0.26 0.26 0.27 0.28 0.26 0.26 0.25 0.24 0.24 0.24 0.24 0.22 0.23 0.25 0.25 0.21 0.20 0.19 0.20 0.19 0.21 0.17 0.16 0.18 0.19 0.15 0.11 0.13 0.19 0.22 0.23 0.23 0.22 0.21 0.20 0.20 0.21 0.21 0.21 0.21 0.21 0.22 0.23
0.21 0.21 0.21 0.21 0.21 0.22 0.22 0.22 0.23 0.23 0.25 0.26 0.22 0.17 0.22 0.19 0.16 0.14 0.12 0.07 0.06 0.07 0.06 0.06 0.09 0.10 0.11 0.10 0.10 0.10 0.12 0.13 0.13 0.14 0.15 0.13 0.13 0.15 0.18 0.17 0.16 0.20 0.25 0.24 0.25 0.24 0.20 0.18 0.20 0.21 0.21 0.23 0.23 0.24 0.23 0.23 0.23 0.24 0.25 0.25 0.21 0.20 0.19 0.20 0.19 0.19 0.19 0.17 0.17 0.11 0.11 0.18 0.21 0.21 0.22 0.23 0.22 0.21 0.20 0.18 0.19 0.21 0.21 0.21 0.21 0.22 0.23
0.22 0.22 0.22 0.21 0.21 0.21 0.21 0.22 0.22 0.23 0.23 0.25 0.21 0.20 0.19 0.18 0.12 0.11 0.11 0.08 0.08 0.10 0.09 0.08 0.08 0.07 0.08 0.10 0.09 0.10 0.11 0.10 0.12 0.13 0.11 0.16 0.14 0.15 0.19 0.20 0.23 0.26 0.26 0.25 0.22 0.20 0.17 0.18 0.15 0.16 0.17 0.19 0.19 0.18 0.21 0.24 0.25 0.24 0.23 0.24 0.24 0.22 0.21 0.20 0.17 0.20 0.15 0.16 0.16 0.15 0.18 0.17 0.18 0.18 0.20 0.21 0.19 0.19 0.18 0.15 0.15 0.21 0.21 0.22 0.22 0.22 0.22
0.22 0.21 0.21 0.21 0.21 0.21 0.22 0.22 0.23 0.23 0.22 0.23 0.23 0.20 0.18 0.18 0.16 0.13 0.14 0.09 0.07 0.09 0.09 0.05 0.09 0.09 0.10 0.10 0.10 0.08 0.08 0.09 0.09 0.10 0.14 0.18 0.16 0.19 0.20 0.22 0.26 0.26 0.26 0.22 0.18 0.18 0.16 0.16 0.13 0.13 0.14 0.14 0.12 0.14 0.21 0.18 0.23 0.25 0.25 0.26 0.25 0.24 0.19 0.21 0.18 0.18 0.20 0.17 0.14 0.14 0.14 0.12 0.15 0.20 0.22 0.23 0.23 0.23 0.22 0.19 0.15 0.21 0.22 0.24 0.23 0.21 0.22
0.21 0.21 0.20 0.20 0.21 0.21 0.22 0.23 0.23 0.23 0.21 0.23 0.22 0.19 0.19 0.20 0.18 0.16 0.15 0.11 0.10 0.06 0.10 0.13 0.14 0.12 0.10 0.10 0.12 0.09 0.08 0.08 0.09 0.11 0.11 0.13 0.15 0.19 0.22 0.24 0.25 0.25 0.22 0.20 0.18 0.16 0.16 0.14 0.13 0.13 0.12 0.13 0.16 0.14 0.14 0.17 0.17 0.21 0.24 0.24 0.24 0.24 0.24 0.22 0.20 0.18 0.19 0.17 0.15 0.14 0.13 0.13 0.19 0.20 0.22 0.23 0.24 0.23 0.23 0.18 0.14 0.21 0.23 0.24 0.23 0.21 0.22
0.19 0.19 0.20 0.20 0.21 0.21 0.22 0.22 0.22 0.22 0.22 0.23 0.21 0.20 0.18 0.22 0.19 0.17 0.15 0.13 0.10 0.08 0.17 0.17 0.16 0.15 0.11 0.10 0.12 0.10 0.11 0.09 0.10 0.08 0.09 0.11 0.14 0.17 0.19 0.23 0.24 0.23 0.20 0.17 0.16 0.15 0.15 0.14 0.15 0.14 0.15 0.17 0.14 0.14 0.16 0.16 0.15 0.16 0.21 0.22 0.22 0.21 0.21 0.20 0.19 0.18 0.19 0.18 0.16 0.14 0.17 0.16 0.19 0.21 0.22 0.23 0.25 0.24 0.21 0.13 0.13 0.21 0.23 0.24 0.23 0.22 0.22
0.19 0.20 0.21 0.22 0.22 0.23 0.22 0.22 0.21 0.22 0.22 0.24 0.23 0.18 0.17 0.23 0.21 0.19 0.15 0.13 0.10 0.10 0.15 0.18 0.15 0.11 0.09 0.11 0.09 0.13 0.13 0.13 0.12 0.13 0.12 0.16 0.16 0.15 0.16 0.19 0.17 0.23 0.25 0.16 0.16 0.15 0.14 0.15 0.13 0.14 0.13 0.18 0.18 0.17 0.13 0.16 0.14 0.15 0.16 0.17 0.17 0.18 0.18 0.20 0.17 0.18 0.19 0.19 0.17 0.18 0.17 0.21 0.24 0.23 0.24 0.24 0.25 0.22 0.15 0.13 0.18 0.23 0.24 0.24 0.23 0.22 0.22
0.22 0.23 0.24 0.24 0.25 0.26 0.26 0.27 0.26 0.25 0.25 0.26 0.24 0.23 0.21 0.24 0.24 0.23 0.21 0.15 0.12 0.10 0.19 0.20 0.21 0.16 0.17 0.20 0.17 0.16 0.16 0.14 0.12 0.10 0.12 0.11 0.14 0.19 0.19 0.19 0.21 0.15 0.21 0.16 0.16 0.15 0.14 0.15 0.18 0.16 0.14 0.16 0.18 0.15 0.17 0.15 0.15 0.18 0.18 0.16 0.17 0.18 0.19 0.19 0.20 0.19 0.18 0.19 0.17 0.16 0.18 0.22 0.24 0.24 0.25 0.26 0.22 0.15 0.15 0.21 0.25 0.24 0.24 0.24 0.24 0.22 0.23
0.27 0.28 0.29 0.30 0.30 0.30 0.31 0.30 0.31 0.30 0.29 0.27 0.26 0.21 0.22 0.25 0.26 0.23 0.21 0.13 0.15 0.13 0.17 0.19 0.19 0.16 0.20 0.17 0.13 0.11 0.12 0.13 0.14 0.13 0.11 0.10 0.20 0.19 0.16 0.14 0.19 0.20 0.17 0.18 0.14 0.17 0.14 0.14 0.16 0.17 0.16 0.17 0.18 0.20 0.17 0.17 0.20 0.18 0.18 0.20 0.17 0.18 0.16 0.16 0.18 0.20 0.21 0.19 0.17 0.16 0.13 0.20 0.25 0.24 0.23 0.25 0.19 0.20 0.24 0.24 0.25 0.25 0.24 0.23 0.23 0.23 0.23
0.30 0.30 0.30 0.31 0.31 0.32 0.31 0.31 0.30 0.29 0.29 0.30 0.29 0.24 0.21 0.27 0.28 0.28 0.29 0.21 0.14 0.12 0.15 0.24 0.24 0.21 0.21 0.19 0.20 0.20 0.17 0.13 0.13 0.12 0.15 0.14 0.18 0.15 0.10 0.11 0.16 0.16 0.14 0.15 0.13 0.15 0.16 0.15 0.17 0.17 0.19 0.18 0.19 0.18 0.15 0.16 0.17 0.22 0.21 0.20 0.19 0.23 0.18 0.18 0.20 0.23 0.18 0.18 0.16 0.16 0.20 0.23 0.25 0.24 0.20 0.23 0.24 0.25 0.25 0.25 0.22 0.24 0.24 0.23 0.22 0.23 0.24
0.31 0.31 0.31 0.31 0.31 0.32 0.31 0.30 0.30 0.29 0.30 0.29 0.30 0.25 0.20 0.26 0.28 0.28 0.28 0.25 0.19 0.16 0.20 0.25 0.27 0.24 0.25 0.26 0.25 0.24 0.22 0.20 0.22 0.22 0.17 0.14 0.18 0.16 0.16 0.17 0.17 0.17 0.18 0.19 0.16 0.16 0.19 0.19 0.19 0.18 0.17 0.18 0.20 0.17 0.18 0.16 0.15 0.20 0.23 0.22 0.17 0.23 0.21 0.22 0.19 0.24 0.21 0.18 0.20 0.23 0.25 0.25 0.26 0.25 0.25 0.25 0.26 0.26 0.26 0.25 0.23 0.22 0.23 0.24 0.24 0.24 0.24
0.31 0.31 0.32 0.31 0.31 0.31 0.30 0.30 0.30 0.29 0.28 0.28 0.28 0.27 0.21 0.24 0.26 0.30 0.30 0.20 0.24 0.25 0.27 0.26 0.27 0.27 0.28 0.28 0.30 0.29 0.28 0.30 0.27 0.26 0.24 0.18 0.15 0.18 0.17 0.17 0.17 0.22 0.21 0.21 0.18 0.20 0.21 0.21 0.19 0.21 0.19 0.20 0.19 0.18 0.19 0.19 0.17 0.20 0.19 0.23 0.22 0.25 0.26 0.26 0.24 0.22 0.25 0.25 0.25 0.24 0.24 0.25 0.26 0.26 0.26 0.25 0.26 0.27 0.27 0.25 0.24 0.24 0.25 0.26 0.25 0.26 0.25
0.33 0.33 0.33 0.33 0.32 0.31 0.30 0.30 0.29 0.29 0.28 0.27 0.29 0.25 0.23 0.26 0.26 0.26 0.24 0.22 0.18 0.17 0.22 0.25 0.22 0.18 0.20 0.21 0.27 0.31 0.30 0.29 0.28 0.29 0.30 0.26 0.17 0.17 0.21 0.23 0.25 0.22 0.22 0.24 0.27 0.22 0.23 0.22 0.22 0.22 0.18 0.21 0.21 0.18 0.17 0.17 0.19 0.22 0.21 0.22 0.24 0.25 0.26 0.25 0.22 0.24 0.21 0.18 0.23 0.23 0.24 0.25 0.25 0.26 0.28 0.29 0.29 0.28 0.27 0.27 0.27 0.28 0.29 0.29 0.29 0.29 0.28
0.33 0.33 0.32 0.32 0.31 0.30 0.30 0.29 0.29 0.28 0.28 0.28 0.29 0.28 0.27 0.26 0.27 0.26 0.21 0.15 0.16 0.16 0.13 0.16 0.19 0.23 0.27 0.30 0.30 0.29 0.31 0.31 0.33 0.31 0.30 0.29 0.25 0.20 0.19 0.26 0.27 0.25 0.24 0.28 0.28 0.26 0.25 0.21 0.21 0.20 0.18 0.22 0.22 0.18 0.22 0.19 0.19 0.23 0.20 0.22 0.23 0.22 0.27 0.23 0.23 0.22 0.21 0.20 0.22 0.24 0.26 0.25 0.26 0.26 0.26 0.25 0.25 0.26 0.27 0.28 0.29 0.30 0.31 0.31 0.31 0.31 0.32
0.33 0.33 0.32 0.32 0.31 0.30 0.29 0.29 0.29 0.28 0.28 0.28 0.28 0.25 0.24 0.22 0.26 0.25 0.25 0.24 0.21 0.18 0.14 0.13 0.17 0.28 0.29 0.27 0.25 0.28 0.34 0.33 0.31 0.31 0.31 0.29 0.31 0.30 0.29 0.30 0.30 0.33 0.30 0.29 0.28 0.25 0.24 0.23 0.23 0.23 0.20 0.21 0.25 0.21 0.21 0.23 0.22 0.24 0.22 0.22 0.25 0.24 0.25 0.21 0.22 0.21 0.22 0.22 0.23 0.24 0.24 0.24 0.25 0.25 0.25 0.25 0.25 0.26 0.27 0.29 0.29 0.30 0.30 0.31 0.32 0.33 0.33
0.33 0.32 0.32 0.31 0.30 0.30 0.29 0.28 0.28 0.28 0.29 0.29 0.27 0.26 0.24 0.24 0.29 0.24 0.24 0.24 0.19 0.16 0.18 0.15 0.19 0.23 0.26 0.23 0.28 0.32 0.32 0.32 0.32 0.32 0.33 0.34 0.34 0.34 0.33 0.32 0.30 0.30 0.29 0.28 0.29 0.27 0.26 0.25 0.24 0.22 0.23 0.23 0.25 0.23 0.24 0.22 0.23 0.21 0.22 0.25 0.27 0.25 0.22 0.24 0.23 0.20 0.19 0.19 0.21 0.24 0.20 0.18 0.20 0.21 0.23 0.24 0.26 0.27 0.27 0.28 0.29 0.30 0.31 0.32 0.33 0.33 0.35
0.33 0.33 0.32 0.31 0.30 0.29 0.29 0.29 0.28 0.28 0.27 0.27 0.26 0.25 0.26 0.24 0.24 0.26 0.27 0.25 0.21 0.15 0.16 0.16 0.17 0.21 0.28 0.25 0.30 0.32 0.34 0.35 0.35 0.35 0.35 0.34 0.36 0.34 0.34 0.33 0.32 0.29 0.28 0.27 0.25 0.25 0.24 0.22 0.22 0.26 0.26 0.26 0.23 0.22 0.25 0.25 0.25 0.24 0.24 0.24 0.26 0.24 0.24 0.24 0.21 0.20 0.19 0.23 0.26 0.27 0.26 0.23 0.22 0.23 0.25 0.26 0.27 0.27 0.26 0.26 0.27 0.29 0.31 0.33 0.34 0.34 0.34
0.33 0.32 0.31 0.30 0.29 0.28 0.29 0.29 0.28 0.28 0.27 0.26 0.28 0.28 0.26 0.27 0.29 0.28 0.29 0.30 0.29 0.21 0.21 0.22 0.24 0.24 0.20 0.25 0.34 0.33 0.36 0.36 0.35 0.35 0.34 0.35 0.35 0.35 0.34 0.34 0.32 0.32 0.31 0.29 0.28 0.27 0.26 0.25 0.28 0.25 0.24 0.27 0.23 0.21 0.23 0.20 0.21 0.20 0.23 0.26 0.27 0.28 0.28 0.26 0.26 0.25 0.25 0.27 0.27 0.26 0.24 0.20 0.21 0.23 0.26 0.27 0.29 0.29 0.28 0.29 0.30 0.32 0.33 0.33 0.33 0.34 0.33
0.33 0.32 0.31 0.30 0.30 0.29 0.30 0.29 0.29 0.29 0.28 0.28 0.27 0.24 0.21 0.22 0.29 0.28 0.30 0.30 0.30 0.26 0.22 0.21 0.20 0.22 0.31 0.32 0.29 0.32 0.33 0.36 0.35 0.35 0.35 0.34 0.34 0.34 0.35 0.33 0.32 0.33 0.31 0.29 0.28 0.24 0.26 0.25 0.27 0.29 0.29 0.31 0.23 0.23 0.20 0.21 0.20 0.22 0.26 0.27 0.28 0.29 0.29 0.29 0.29 0.26 0.24 0.27 0.26 0.24 0.23 0.22 0.23 0.25 0.26 0.27 0.29 0.30 0.30 0.31 0.32 0.34 0.34 0.35 0.34 0.33 0.34
0.32 0.32 0.31 0.31 0.31 0.30 0.30 0.29 0.28 0.29 0.28 0.27 0.26 0.21 0.21 0.19 0.25 0.33 0.31 0.31 0.34 0.31 0.25 0.24 0.22 0.26 0.26 0.31 0.31 0.31 0.32 0.33 0.33 0.33 0.33 0.34 0.33 0.32 0.33 0.33 0.32 0.32 0.28 0.28 0.27 0.26 0.26 0.23 0.24 0.26 0.29 0.29 0.26 0.22 0.20 0.20 0.19 0.21 0.25 0.27 0.27 0.27 0.27 0.27 0.29 0.28 0.27 0.24 0.23 0.22 0.22 0.21 0.22 0.24 0.24 0.26 0.28 0.30 0.30 0.31 0.33 0.34 0.35 0.34 0.33 0.33 0.33
0.33 0.32 0.31 0.30 0.30 0.31 0.31 0.30 0.30 0.31 0.31 0.28 0.25 0.24 0.23 0.25 0.30 0.33 0.33 0.31 0.32 0.29 0.23 0.21 0.21 0.23 0.22 0.26 0.30 0.33 0.33 0.32 0.32 0.30 0.30 0.31 0.28 0.31 0.30 0.30 0.27 0.31 0.28 0.26 0.27 0.26 0.24 0.25 0.24 0.25 0.25 0.28 0.25 0.21 0.21 0.20 0.18 0.20 0.23 0.24 0.26 0.26 0.27 0.26 0.26 0.25 0.24 0.23 0.22 0.20 0.20 0.21 0.24 0.24 0.25 0.28 0.29 0.31 0.31 0.33 0.34 0.34 0.34 0.33 0.32 0.32 0.32
0.34 0.33 0.32 0.31 0.30 0.30 0.29 0.29 0.29 0.29 0.27 0.29 0.31 0.32 0.32 0.33 0.33 0.33 0.33 0.32 0.31 0.25 0.27 0.24 0.21 0.22 0.22 0.23 0.28 0.29 0.29 0.29 0.27 0.27 0.25 0.30 0.27 0.28 0.26 0.28 0.28 0.26 0.31 0.25 0.21 0.20 0.24 0.23 0.24 0.21 0.24 0.27 0.21 0.20 0.18 0.19 0.19 0.22 0.23 0.23 0.23 0.23 0.23 0.23 0.23 0.22 0.23 0.23 0.24 0.22 0.22 0.24 0.27 0.29 0.31 0.32 0.33 0.33 0.34 0.33 0.33 0.33 0.32 0.31 0.31 0.30 0.31
0.34 0.33 0.32 0.32 0.31 0.31 0.30 0.29 0.31 0.32 0.35 0.32 0.25 0.26 0.30 0.33 0.32 0.32 0.33 0.33 0.27 0.27 0.28 0.24 0.21 0.20 0.20 0.25 0.21 0.26 0.29 0.24 0.24 0.26 0.23 0.28 0.29 0.26 0.25 0.25 0.26 0.22 0.26 0.22 0.23 0.22 0.23 0.22 0.20 0.20 0.22 0.20 0.22 0.19 0.16 0.18 0.21 0.21 0.22 0.22 0.23 0.23 0.23 0.23 0.24 0.24 0.26 0.28 0.30 0.32 0.33 0.34 0.35 0.36 0.37 0.37 0.36 0.36 0.36 0.35 0.34 0.32 0.31 0.30 0.29 0.29 0.28
0.34 0.33 0.32 0.32 0.32 0.33 0.33 0.31 0.30 0.28 0.25 0.25 0.26 0.29 0.30 0.31 0.32 0.32 0.33 0.29 0.24 0.23 0.23 0.23 0.23 0.20 0.19 0.21 0.20 0.24 0.30 0.26 0.24 0.26 0.23 0.26 0.29 0.24 0.24 0.21 0.23 0.18 0.20 0.26 0.20 0.20 0.18 0.19 0.22 0.17 0.15 0.20 0.18 0.16 0.17 0.18 0.20 0.21 0.22 0.22 0.23 0.23 0.23 0.22 0.23 0.26 0.29 0.32 0.34 0.35 0.36 0.36 0.35 0.34 0.33 0.33 0.33 0.32 0.32 0.30 0.30 0.29 0.26 0.25 0.24 0.24 0.24
0.31 0.32 0.31 0.31 0.33 0.32 0.32 0.33 0.28 0.27 0.25 0.23 0.25 0.30 0.31 0.31 0.32 0.31 0.32 0.33 0.27 0.21 0.20 0.21 0.21 0.19 0.20 0.17 0.18 0.23 0.29 0.25 0.27 0.26 0.25 0.25 0.24 0.26 0.23 0.21 0.16 0.19 0.22 0.18 0.16 0.19 0.17 0.21 0.19 0.14 0.19 0.16 0.15 0.17 0.19 0.21 0.21 0.22 0.23 0.23 0.24 0.24 0.24 0.24 0.25 0.28 0.30 0.32 0.31 0.30 0.29 0.28 0.27 0.26 0.27 0.26 0.26 0.26 0.26 0.25 0.25 0.25 0.23 0.22 0.22 0.23 0.23
0.30 0.30 0.32 0.31 0.30 0.31 0.25 0.24 0.28 0.26 0.25 0.28 0.29 0.30 0.30 0.32 0.31 0.31 0.28 0.29 0.29 0.29 0.22 0.21 0.19 0.19 0.20 0.19 0.22 0.25 0.26 0.19 0.24 0.21 0.23 0.21 0.19 0.22 0.20 0.18 0.14 0.19 0.18 0.16 0.16 0.16 0.19 0.24 0.19 0.16 0.16 0.16 0.18 0.23 0.24 0.25 0.26 0.26 0.25 0.25 0.26 0.26 0.27 0.28 0.30 0.31 0.29 0.28 0.27 0.26 0.26 0.25 0.24 0.23 0.23 0.22 0.22 0.23 0.22 0.22 0.23 0.23 0.23 0.23 0.23 0.23 0.23
0.29 0.28 0.28 0.27 0.25 0.22 0.22 0.25 0.25 0.30 0.31 0.29 0.28 0.26 0.27 0.26 0.22 0.22 0.23 0.21 0.23 0.25 0.23 0.23 0.19 0.21 0.23 0.21 0.18 0.25 0.24 0.21 0.24 0.19 0.20 0.22 0.19 0.18 0.20 0.16 0.16 0.17 0.12 0.15 0.17 0.23 0.21 0.20 0.18 0.17 0.17 0.22 0.25 0.26 0.27 0.28 0.29 0.29 0.28 0.27 0.28 0.29 0.30 0.32 0.32 0.29 0.26 0.24 0.23 0.23 0.22 0.22 0.21 0.21 0.22 0.21 0.22 0.22 0.22 0.23 0.23 0.24 0.24 0.24 0.24 0.24 0.24
0.28 0.26 0.25 0.23 0.21 0.20 0.21 0.24 0.32 0.31 0.29 0.28 0.28 0.21 0.20 0.23 0.21 0.18 0.19 0.21 0.22 0.20 0.23 0.21 0.20 0.22 0.21 0.20 0.22 0.28 0.23 0.20 0.19 0.20 0.16 0.22 0.17 0.14 0.18 0.14 0.18 0.18 0.15 0.16 0.18 0.23 0.17 0.19 0.20 0.19 0.18 0.22 0.24 0.27 0.30 0.31 0.31 0.30 0.29 0.29 0.29 0.31 0.33 0.32 0.29 0.26 0.25 0.23 0.23 0.23 0.23 0.21 0.21 0.20 0.21 0.21 0.22 0.22 0.23 0.23 0.23 0.23 0.23 0.23 0.23 0.24 0.24
0.26 0.22 0.21 0.20 0.20 0.21 0.27 0.29 0.29 0.28 0.27 0.21 0.22 0.21 0.18 0.22 0.18 0.17 0.22 0.19 0.19 0.21 0.22 0.19 0.22 0.22 0.22 0.20 0.19 0.20 0.28 0.21 0.16 0.16 0.16 0.17 0.24 0.16 0.19 0.19 0.20 0.18 0.15 0.15 0.19 0.24 0.20 0.18 0.20 0.19 0.19 0.25 0.26 0.29 0.30 0.30 0.29 0.29 0.29 0.30 0.31 0.33 0.32 0.28 0.26 0.26 0.25 0.24 0.25 0.24 0.24 0.24 0.24 0.23 0.23 0.22 0.22 0.22 0.21 0.22 0.22 0.23 0.23 0.23 0.24 0.23 0.23
0.24 0.23 0.23 0.20 0.22 0.25 0.26 0.27 0.28 0.25 0.21 0.20 0.19 0.21 0.19 0.18 0.20 0.21 0.20 0.18 0.17 0.18 0.23 0.22 0.23 0.21 0.23 0.23 0.21 0.18 0.25 0.25 0.23 0.22 0.21 0.17 0.25 0.23 0.19 0.17 0.22 0.18 0.17 0.17 0.23 0.23 0.22 0.20 0.20 0.19 0.20 0.26 0.27 0.29 0.30 0.29 0.29 0.29 0.30 0.31 0.32 0.29 0.26 0.25 0.24 0.24 0.24 0.23 0.23 0.23 0.24 0.25 0.25 0.24 0.25 0.24 0.24 0.24 0.24 0.24 0.23 0.24 0.24 0.24 0.23 0.23 0.24
0.26 0.24 0.25 0.27 0.26 0.26 0.26 0.25 0.23 0.20 0.20 0.22 0.17 0.16 0.18 0.18 0.21 0.21 0.20 0.15 0.16 0.20 0.21 0.22 0.18 0.19 0.19 0.21 0.20 0.21 0.22 0.26 0.24 0.23 0.21 0.19 0.24 0.22 0.21 0.22 0.22 0.19 0.17 0.21 0.24 0.23 0.22 0.19 0.19 0.20 0.26 0.28 0.30 0.30 0.29 0.28 0.29 0.30 0.31 0.29 0.27 0.26 0.25 0.25 0.24 0.24 0.25 0.24 0.24 0.24 0.24 0.24 0.24 0.24 0.25 0.25 0.24 0.24 0.24 0.24 0.24 0.24 0.23 0.24 0.25 0.25 0.25
0.28 0.26 0.25 0.22 0.21 0.21 0.22 0.18 0.21 0.20 0.15 0.16 0.16 0.14 0.18 0.16 0.17 0.16 0.17 0.21 0.23 0.20 0.20 0.23 0.21 0.24 0.24 0.26 0.23 0.25 0.23 0.29 0.25 0.24 0.23 0.22 0.27 0.25 0.22 0.21 0.21 0.18 0.21 0.24 0.23 0.21 0.20 0.19 0.19 0.23 0.28 0.29 0.31 0.30 0.30 0.30 0.31 0.30 0.28 0.26 0.25 0.25 0.25 0.24 0.24 0.23 0.24 0.24 0.24 0.24 0.24 0.23 0.23 0.24 0.25 0.25 0.25 0.24 0.24 0.24 0.25 0.25 0.25 0.25 0.25 0.25 0.25
0.23 0.21 0.18 0.18 0.16 0.18 0.20 0.12 0.20 0.17 0.17 0.17 0.15 0.13 0.15 0.14 0.16 0.17 0.15 0.17 0.19 0.17 0.20 0.18 0.20 0.20 0.19 0.26 0.24 0.25 0.28 0.29 0.31 0.28 0.25 0.27 0.24 0.22 0.22 0.20 0.20 0.24 0.26 0.23 0.21 0.19 0.20 0.22 0.24 0.28 0.30 0.31 0.32 0.31 0.31 0.30 0.27 0.25 0.23 0.23 0.24 0.24 0.23 0.23 0.22 0.22 0.21 0.22 0.23 0.23 0.24 0.23 0.24 0.24 0.25 0.25 0.25 0.24 0.24 0.24 0.25 0.26 0.27 0.27 0.26 0.26 0.27
0.16 0.16 0.15 0.14 0.13 0.17 0.14 0.12 0.20 0.15 0.13 0.15 0.17 0.16 0.15 0.13 0.15 0.16 0.15 0.21 0.19 0.18 0.22 0.23 0.24 0.24 0.24 0.28 0.29 0.28 0.29 0.25 0.31 0.25 0.22 0.25 0.22 0.23 0.22 0.21 0.24 0.24 0.22 0.20 0.21 0.21 0.22 0.23 0.29 0.30 0.31 0.31 0.31 0.28 0.25 0.23 0.23 0.22 0.22 0.21 0.21 0.21 0.21 0.21 0.21 0.22 0.22 0.22 0.22 0.23 0.23 0.24 0.24 0.24 0.24 0.24 0.25 0.26 0.26 0.26 0.27 0.27 0.27 0.27 0.27 0.27 0.27
0.14 0.12 0.13 0.10 0.09 0.14 0.14 0.12 0.14 0.13 0.17 0.18 0.17 0.18 0.17 0.18 0.18 0.18 0.22 0.23 0.23 0.25 0.26 0.27 0.27 0.27 0.26 0.29 0.26 0.26 0.28 0.28 0.25 0.25 0.26 0.25 0.22 0.21 0.25 0.27 0.26 0.22 0.21 0.21 0.20 0.20 0.22 0.27 0.29 0.30 0.31 0.28 0.23 0.21 0.21 0.21 0.22 0.22 0.21 0.19 0.20 0.21 0.21 0.22 0.22 0.22 0.22 0.23 0.23 0.23 0.23 0.23 0.23 0.23 0.23 0.24 0.25 0.26 0.27 0.28 0.29 0.29 0.29 0.28 0.28 0.28 0.28
0.16 0.18 0.16 0.13 0.11 0.15 0.17 0.12 0.14 0.16 0.17 0.18 0.20 0.20 0.20 0.21 0.23 0.25 0.28 0.29 0.28 0.29 0.29 0.30 0.29 0.29 0.27 0.28 0.28 0.29 0.29 0.29 0.25 0.27 0.27 0.23 0.23 0.25 0.27 0.24 0.21 0.22 0.20 0.20 0.21 0.23 0.26 0.29 0.30 0.27 0.23 0.21 0.20 0.20 0.21 0.21 0.21 0.21 0.20 0.21 0.21 0.21 0.22 0.22 0.23 0.23 0.23 0.24 0.24 0.23 0.23 0.23 0.24 0.24 0.25 0.24 0.25 0.26 0.27 0.28 0.28 0.29 0.30 0.30 0.30 0.30 0.29
0.14 0.18 0.17 0.11 0.11 0.13 0.13 0.16 0.19 0.20 0.22 0.21 0.23 0.25 0.27 0.28 0.28 0.28 0.30 0.30 0.31 0.31 0.30 0.30 0.29 0.30 0.29 0.32 0.31 0.27 0.28 0.29 0.26 0.27 0.28 0.26 0.27 0.25 0.24 0.23 0.22 0.24 0.24 0.23 0.24 0.28 0.27 0.25 0.22 0.20 0.20 0.20 0.20 0.20 0.20 0.20 0.20 0.20 0.21 0.21 0.22 0.22 0.23 0.23 0.23 0.24 0.24 0.24 0.24 0.24 0.25 0.25 0.25 0.25 0.25 0.25 0.26 0.26 0.27 0.27 0.28 0.28 0.29 0.31 0.31 0.31 0.30
0.19 0.18 0.15 0.14 0.16 0.17 0.18 0.21 0.20 0.19 0.23 0.26 0.27 0.28 0.28 0.27 0.27 0.28 0.30 0.32 0.32 0.31 0.32 0.31 0.30 0.30 0.28 0.30 0.29 0.29 0.27 0.29 0.26 0.26 0.28 0.27 0.24 0.23 0.22 0.21 0.22 0.22 0.26 0.27 0.25 0.22 0.20 0.19 0.19 0.19 0.19 0.20 0.20 0.20 0.20 0.20 0.21 0.21 0.23 0.23 0.24 0.24 0.25 0.25 0.25 0.24 0.25 0.25 0.25 0.25 0.26 0.26 0.27 0.26 0.26 0.26 0.25 0.25 0.27 0.28 0.28 0.28 0.29 0.29 0.30 0.30 0.30
0.17 0.16 0.19 0.17 0.16 0.20 0.22 0.22 0.21 0.20 0.24 0.25 0.26 0.25 0.26 0.26 0.27 0.30 0.33 0.32 0.33 0.33 0.34 0.34 0.36 0.32 0.31 0.31 0.28 0.29 0.29 0.30 0.29 0.29 0.27 0.25 0.25 0.25 0.24 0.21 0.22 0.22 0.21 0.22 0.20 0.18 0.18 0.18 0.19 0.18 0.18 0.19 0.19 0.20 0.20 0.20 0.22 0.23 0.25 0.25 0.25 0.25 0.25 0.24 0.24 0.25 0.25 0.25 0.26 0.26 0.27 0.27 0.26 0.26 0.25 0.25 0.26 0.27 0.27 0.27 0.27 0.27 0.28 0.28 0.28 0.28 0.28
0.21 0.18 0.18 0.22 0.17 0.17 0.19 0.16 0.17 0.17 0.19 0.21 0.23 0.25 0.27 0.28 0.30 0.32 0.37 0.36 0.36 0.35 0.35 0.32 0.33 0.32 0.31 0.30 0.29 0.27 0.28 0.30 0.29 0.26 0.25 0.24 0.25 0.23 0.21 0.20 0.21 0.21 0.21 0.21 0.19 0.18 0.17 0.18 0.18 0.18 0.18 0.19 0.19 0.20 0.21 0.23 0.25 0.26 0.26 0.25 0.25 0.25 0.25 0.25 0.25 0.25 0.26 0.26 0.26 0.26 0.25 0.24 0.25 0.25 0.26 0.27 0.26 0.26 0.26 0.26 0.26 0.26 0.27 0.28 0.28 0.27 0.26
0.17 0.15 0.15 0.18 0.21 0.22 0.23 0.23 0.24 0.23 0.24 0.27 0.28 0.31 0.33 0.33 0.36 0.38 0.41 0.40 0.38 0.35 0.34 0.35 0.34 0.32 0.30 0.27 0.28 0.29 0.30 0.27 0.24 0.24 0.22 0.23 0.24 0.21 0.20 0.21 0.21 0.21 0.20 0.18 0.16 0.16 0.17 0.18 0.18 0.19 0.19 0.20 0.21 0.22 0.24 0.26 0.26 0.25 0.24 0.24 0.24 0.24 0.24 0.25 0.25 0.26 0.25 0.25 0.25 0.24 0.24 0.24 0.24 0.25 0.25 0.24 0.23 0.23 0.22 0.22 0.23 0.24 0.25 0.26 0.26 0.26 0.26
Wind_Speed
11 10 9 8 7 7 6 5 4 4 3 3 3 4 4 4 4 4 3 4 5 4 3 3 3 3 4 4 3 4 4 4 5 6 6 7 7 7 8 8 8 9 9 10 10 10 11 11 11 12 12 12 13 13 14 14 14 15 15 15 17 18 17 19 21 21 20 21 21 22 23 24 24 24 24 23 24 24 24 24 26 26 25 26 25 26 30
11 10 9 8 7 6 5 4 4 3 3 3 3 4 4 4 4 3 3 4 4 3 3 3 3 3 3 3 3 4 5 5 5 6 6 7 8 8 8 8 9 9 10 10 10 10 11 11 11 12 12 13 13 14 14 14 14 15 15 16 17 17 17 19 21 22 21 22 22 23 24 25 25 25 24 24 24 25 26 25 25 25 25 25 24 26 31
10 9 8 7 6 5 5 4 4 3 3 3 3 3 3 4 4 3 3 3 4 3 3 3 3 3 3 3 4 5 5 5 6 6 7 7 8 8 8 9 9 9 10 11 11 11 11 12 12 12 13 13 13 14 14 14 15 15 15 16 17 18 18 19 20 20 21 23 23 24 25 26 26 25 24 24 23 23 25 25 24 25 26 24 23 29 35
9 8 7 6 6 5 4 4 3 3 3 3 3 3 3 3 3 3 3 3 3 3 3 3 3 4 4 4 5 5 5 6 6 7 7 8 8 8 9 9 10 10 10 11 11 11 11 12 13 13 13 13 14 14 14 14 15 15 16 17 17 18 19 19 19 20 21 23 24 25 26 26 27 25 23 23 23 22 24 25 24 26 27 26 26 31 38
8 7 7 6 6 5 4 3 3 3 2 2 2 2 3 3 3 3 3 3 3 3 3 3 3 4 5 5 5 5 5 6 6 7 8 8 8 9 9 9 10 10 10 11 11 11 11 12 13 14 14 13 14 14 14 15 15 15 16 17 17 18 20 19 20 22 23 25 26 26 26 27 27 26 24 22 22 22 23 24 25 27 27 29 31 31 35
7 7 7 6 6 5 4 3 2 2 2 2 2 2 2 3 3 3 4 4 4 4 4 4 4 4 5 5 6 6 6 7 7 8 8 8 9 9 9 10 11 11 11 12 12 11 12 13 13 14 14 14 14 14 15 15 15 14 16 17 17 19 20 20 20 23 24 26 27 26 26 26 27 26 25 23 21 21 22 25 27 26 26 30 35 35 35
7 7 7 6 5 4 3 2 2 2 2 2 3 2 2 3 3 3 4 4 4 5 5 5 4 4 5 6 7 7 7 7 8 8 8 9 10 9 10 11 11 11 11 12 12 13 13 13 14 14 14 15 15 15 15 15 15 15 16 17 18 19 20 21 22 24 26 26 26 25 25 26 27 26 25 23 22 22 24 27 28 27 28 33 36 38 37
7 7 6 5 4 4 3 2 2 3 2 3 3 3 3 3 3 3 4 3 4 5 5 5 6 6 7 7 8 8 8 8 8 9 9 10 10 10 11 11 10 11 11 12 13 14 13 13 14 14 14 15 15 15 16 15 15 17 17 18 19 19 21 22 23 25 26 25 25 25 25 27 28 26 24 24 24 24 25 28 28 28 31 33 34 36 37
7 6 5 5 4 3 3 3 3 3 3 3 3 3 3 4 4 4 4 4 4 5 6 6 7 7 8 8 8 9 10 9 8 9 10 10 10 11 11 11 11 12 13 14 14 14 13 13 14 14 14 15 16 16 16 16 16 17 18 18 19 20 22 23 23 26 26 25 25 26 27 28 27 26 25 25 25 25 25 27 27 27 30 33 33 34 36
6 5 4 4 3 3 3 4 4 4 4 3 3 4 4 4 5 5 5 5 6 6 7 7 8 8 9 9 9 10 10 9 8 10 11 11 11 12 12 12 12 13 14 14 14 14 15 15 15 15 16 16 16 16 17 17 17 17 18 19 20 20 22 24 24 25 26 26 27 29 29 27 25 25 26 25 25 25 26 27 28 27 29 31 32 33 35
5 4 4 3 3 4 4 4 4 4 4 4 4 4 5 5 5 5 6 6 7 7 7 8 8 9 9 9 9 11 11 10 10 12 12 12 12 13 13 13 14 14 14 15 15 16 16 16 17 17 17 17 17 17 18 18 18 18 18 19 21 21 22 24 24 24 26 28 29 29 27 24 24 26 25 24 24 25 27 28 29 28 29 30 31 33 36
4 4 3 3 3 4 4 4 5 5 5 5 5 5 6 6 6 6 6 7 8 8 9 9 9 9 9 10 10 11 11 11 12 12 12 12 13 14 14 14 15 15 15 16 16 16 17 17 17 17 17 18 18 18 19 19 19 19 19 19 20 20 22 24 24 24 27 29 29 27 24 23 25 26 25 24 26 27 29 31 30 30 30 31 32 34 36
3 3 3 3 3 4 4 4 5 6 6 6 6 6 7 7 7 7 8 8 9 8 9 10 10 10 11 10 10 11 11 12 12 12 12 13 13 14 15 15 15 15 15 16 16 17 18 18 18 18 18 18 19 19 19 19 18 19 20 20 20 21 22 24 24 25 26 27 25 24 26 29 27 24 24 26 27 28 30 33 31 29 29 30 32 35 36
2 2 3 3 4 4 5 5 6 6 7 7 8 8 8 8 8 8 9 9 10 9 10 10 11 11 11 11 10 11 12 12 13 13 13 13 13 14 15 15 15 16 16 16 17 17 18 19 19 19 19 19 19 19 19 19 19 19 20 21 21 21 22 24 24 24 24 25 26 26 30 31 27 24 25 27 28 28 29 32 32 29 27 30 33 35 36
2 3 4 4 5 5 6 6 6 7 7 8 8 8 9 9 9 10 10 10 10 11 11 11 11 11 11 11 11 11 12 13 13 13 14 14 14 14 15 15 16 16 17 17 17 18 18 19 19 20 19 19 19 19 19 19 20 21 21 21 21 22 23 23 23 24 24 25 27 27 27 26 25 26 27 27 28 28 28 31 33 30 28 31 33 34 35
3 4 4 5 5 6 6 6 7 7 7 8 8 9 9 10 10 11 11 11 11 12 12 13 13 12 11 12 13 13 13 14 14 14 14 14 14 15 15 16 16 17 17 17 18 18 19 19 19 20 19 19 19 20 20 20 20 21 22 21 21 22 23 23 23 25 24 24 25 24 24 26 26 26 26 26 27 28 29 32 33 32 31 32 32 34 35
3 4 4 4 5 5 5 6 6 7 7 8 9 9 10 10 11 11 12 12 12 13 13 14 14 13 13 13 14 15 15 15 15 15 15 15 15 15 16 16 17 17 17 18 18 19 19 19 20 20 20 20 19 21 21 20 21 21 21 21 21 22 23 23 23 24 24 24 24 24 25 27 27 25 25 26 27 28 29 31 33 33 33 33 33 34 35
3 3 4 4 4 5 5 6 6 7 7 8 8 9 10 10 11 12 12 13 13 13 14 14 15 14 14 15 16 16 16 16 16 16 16 16 16 16 16 17 17 18 18 18 18 19 20 20 20 21 21 20 20 21 21 20 21 21 20 21 22 22 23 22 23 24 24 23 24 26 27 27 26 24 24 26 27 28 29 31 33 34 33 33 33 34 35
2 3 3 3 4 4 5 5 6 7 7 8 9 9 10 11 12 13 13 13 14 14 15 15 16 16 16 17 17 17 17 17 17 17 17 17 18 17 17 18 19 18 19 19 19 20 20 20 20 20 21 21 20 20 21 21 21 21 21 21 22 22 22 22 22 23 23 23 24 26 28 26 24 24 26 26 28 30 31 32 34 34 34 34 34 34 35
2 3 3 4 4 5 5 6 7 8 8 9 10 11 12 13 13 14 14 14 15 15 16 17 17 17 17 17 17 17 18 18 18 18 18 18 18 17 18 19 19 19 19 20 20 20 20 20 20 20 21 21 20 21 22 22 22 21 21 22 22 21 21 22 22 22 22 23 23 24 27 26 23 24 27 28 28 31 33 34 35 35 35 35 35 35 35
3 3 4 5 5 6 6 7 8 8 9 10 11 12 13 14 14 15 15 15 16 16 17 17 17 17 17 17 18 18 18 18 18 18 18 18 18 18 19 19 19 18 19 19 20 20 20 20 20 20 21 21 21 21 22 23 24 22 21 22 22 21 21 22 23 22 21 22 22 23 26 26 23 24 27 29 30 33 35 36 37 37 37 36 36 36 36
4 5 5 6 6 6 7 7 8 9 9 11 12 12 13 14 14 14 15 15 15 16 16 16 16 16 17 17 17 18 17 17 18 18 18 17 17 18 19 18 17 18 19 19 19 20 20 20 21 21 21 21 21 22 22 23 24 23 21 22 22 22 22 23 24 24 23 24 26 27 28 27 25 27 31 32 34 36 37 37 38 38 37 37 37 38 37
5 6 6 7 7 7 8 8 9 9 10 11 12 13 12 13 13 14 14 14 14 14 15 15 15 15 15 16 16 16 16 16 17 17 17 17 16 17 18 18 18 19 19 18 19 20 20 20 20 21 22 22 22 22 23 23 23 23 22 23 23 23 23 23 24 25 26 27 28 29 30 30 29 30 33 35 36 37 37 37 38 38 38 37 37 38 38
6 7 7 7 7 8 8 8 9 10 10 11 12 12 12 13 13 14 14 14 14 14 14 15 15 15 15 15 15 15 16 16 16 16 16 17 16 16 17 18 18 18 18 19 20 20 20 20 20 21 21 21 21 22 23 23 23 23 23 24 24 24 23 23 25 26 26 27 26 26 28 30 31 33 34 36 37 37 37 37 37 38 38 38 38 39 39
8 8 8 8 8 8 8 9 9 10 11 11 12 12 13 13 14 14 14 14 14 14 14 14 14 14 14 14 15 15 15 15 16 16 16 16 17 16 17 18 18 18 18 19 20 20 20 20 20 20 21 21 21 21 21 22 23 23 23 24 25 24 24 24 25 24 25 27 29 30 32 33 34 35 36 36 37 37 37 37 37 38 39 39 39 39 39
8 9 9 9 9 9 9 9 10 11 12 12 13 13 13 14 14 14 13 13 13 13 12 12 13 13 13 13 13 13 14 14 14 15 15 16 16 17 17 18 18 18 19 20 20 19 20 20 20 20 20 20 21 21 21 23 24 24 24 24 24 23 24 24 24 25 26 28 31 33 34 33 33 34 35 36 37 38 37 37 38 39 39 40 40 40 40
9 10 10 10 10 10 10 11 11 12 13 13 13 13 13 13 12 12 12 12 12 11 11 11 10 11 11 11 11 12 12 13 13 14 14 15 15 16 17 18 18 18 18 18 18 18 19 19 19 19 20 21 21 21 21 23 23 23 24 23 22 22 23 22 23 25 26 27 30 32 33 34 35 37 38 38 39 39 39 39 40 40 41 41 41 41 41
10 11 11 11 11 11 11 11 11 12 13 13 12 12 11 11 11 11 11 11 10 10 10 9 9 9 9 10 10 11 12 12 12 13 13 14 14 15 16 16 17 17 16 17 17 17 18 18 18 19 19 20 21 21 21 21 22 22 22 21 19 20 21 21 22 25 27 30 33 34 34 36 39 41 41 40 40 40 40 41 42 43 43 42 42 42 42
11 11 11 11 11 11 11 11 12 12 13 12 11 10 10 10 11 11 11 10 10 9 9 8 8 9 10 10 10 11 11 12 12 12 13 13 14 14 15 16 16 16 16 16 17 17 18 18 18 19 19 19 20 21 21 21 21 21 21 20 20 21 22 22 25 28 30 34 37 37 37 39 41 43 43 43 42 42 43 44 44 45 44 43 43 43 43
11 11 12 12 11 11 11 11 12 12 12 11 10 10 10 10 11 11 11 11 10 10 9 9 9 9 10 10 10 11 12 12 13 13 14 14 14 15 15 16 16 16 16 16 17 17 18 18 18 18 19 19 19 20 20 21 20 20 21 22 22 22 24 25 27 30 33 36 38 39 40 42 43 44 44 44 44 44 44 46 46 46 46 45 44 44 43
11 12 12 12 12 11 11 11 11 11 11 10 10 10 10 10 11 12 12 11 11 10 10 9 9 9 10 10 11 11 12 13 13 13 14 14 14 15 15 16 16 16 16 16 17 17 18 18 17 17 18 18 19 19 20 21 20 20 22 24 24 24 26 28 30 32 35 38 40 41 41 42 43 44 44 45 45 45 46 48 48 48 47 46 45 44 44
11 11 12 12 12 12 11 11 11 10 10 10 10 10 10 10 11 12 12 11 10 10 10 10 10 10 10 11 12 12 12 13 13 14 14 14 14 15 15 16 16 16 15 16 17 17 17 17 18 17 17 18 18 19 20 20 20 21 24 27 28 28 30 31 32 34 36 38 41 42 43 43 44 44 46 47 48 48 48 49 49 48 47 46 45 45 45
11 11 12 12 12 11 11 10 10 10 10 10 10 10 11 11 12 12 12 11 10 11 10 10 10 10 11 11 12 12 13 13 14 14 14 14 15 15 16 16 16 16 16 16 17 17 17 18 18 18 18 18 19 19 19 19 20 24 27 28 29 30 32 32 34 35 37 39 40 41 43 46 46 46 47 48 48 48 48 48 48 47 46 45 45 45 46
11 11 12 11 11 11 10 10 10 10 10 10 10 11 12 12 12 12 12 11 10 11 11 11 10 11 11 12 12 13 14 14 15 15 16 16 16 17 17 16 17 17 17 17 18 18 18 18 18 18 18 19 19 19 19 20 23 26 27 29 30 32 33 34 36 38 40 41 41 41 43 46 47 47 47 48 48 48 48 47 47 46 46 46 46 46 46
11 12 11 11 11 10 10 10 10 10 10 11 11 11 12 12 12 12 12 12 11 11 11 11 11 12 12 13 13 14 15 16 16 16 17 17 17 18 18 17 17 18 17 18 18 18 18 18 19 18 18 19 18 18 19 21 24 27 28 30 32 34 36 37 39 41 42 42 43 44 45 45 46 47 47 47 47 48 48 47 47 46 47 47 47 47 46
12 11 11 11 11 10 10 10 10 11 11 11 11 12 12 12 12 12 12 12 12 12 11 12 12 12 13 14 14 15 17 17 17 17 18 18 18 18 18 18 18 18 18 18 19 19 19 19 19 19 19 19 18 18 20 23 26 29 30 32 34 36 38 40 43 44 45 45 45 46 46 46 47 47 47 47 48 48 48 49 48 47 48 49 49 48 48
12 11 11 11 11 10 10 11 11 11 11 12 12 12 12 12 12 12 12 12 12 12 12 12 13 14 14 15 16 17 18 18 18 18 18 18 19 19 19 18 19 19 19 19 19 18 18 18 18 19 20 19 19 20 23 26 28 31 33 35 36 38 40 42 44 46 47 47 47 46 47 47 47 47 47 48 49 49 50 50 50 49 50 51 51 50 50
12 12 11 11 11 10 11 11 12 12 12 13 13 13 13 13 13 12 12 13 13 13 13 13 14 15 15 16 17 18 19 19 19 19 19 19 20 20 19 19 20 20 20 20 19 18 19 19 19 20 21 21 21 22 25 27 29 32 34 36 38 40 42 44 45 46 47 48 48 48 49 50 50 50 50 50 51 51 51 51 51 51 52 52 52 53 52
13 12 12 11 11 11 11 12 13 13 13 13 13 12 13 13 13 13 13 13 13 14 15 15 15 16 17 17 18 19 20 20 20 20 20 20 21 20 20 20 20 20 21 21 20 19 20 20 20 22 22 22 21 23 26 29 32 34 36 38 40 42 43 44 44 45 46 47 48 49 49 50 51 52 53 53 53 53 53 53 53 53 54 54 54 55 55
13 13 12 12 12 12 12 13 14 13 13 13 13 12 13 13 13 13 14 14 14 14 15 16 16 17 18 18 19 20 21 21 20 21 21 21 21 21 21 22 22 22 22 22 21 21 21 22 23 23 23 22 23 26 30 33 35 37 38 41 43 45 45 45 45 46 47 47 48 49 49 50 51 52 53 54 55 56 56 56 56 56 57 57 57 57 57
14 14 13 13 13 14 14 14 14 13 13 12 12 12 13 13 14 14 14 15 15 16 17 17 18 18 19 19 20 21 21 21 21 21 21 21 21 21 22 23 23 22 22 22 22 23 23 24 24 24 23 25 28 31 33 36 38 40 42 44 46 46 46 47 47 48 49 49 50 50 51 52 53 54 55 56 56 57 58 58 59 60 60 60 60 60 60
15 15 15 15 15 14 14 14 13 13 12 12 12 13 13 14 14 15 15 15 16 17 18 18 19 19 20 20 21 21 21 22 22 21 22 22 23 23 23 23 23 23 22 23 24 25 25 26 26 25 26 28 32 34 36 39 42 44 45 47 47 47 48 49 50 50 51 51 52 53 54 55 56 57 57 58 59 59 60 60 61 62 62 62 62 62 62
16 16 15 15 14 14 14 13 13 12 12 12 12 13 14 15 15 16 16 17 18 18 19 19 20 20 21 21 21 21 22 22 22 23 23 24 24 24 24 24 23 23 24 25 26 26 26 26 26 27 29 32 35 37 40 43 45 46 47 48 48 49 50 51 52 53 54 54 55 56 57 58 59 60 60 61 61 62 63 63 64 64 64 64 64 63 63
16 16 15 14 14 13 13 13 13 12 12 13 13 14 15 16 17 17 18 18 19 19 20 20 20 21 21 22 22 22 22 23 23 24 24 24 25 25 25 25 25 26 27 27 27 27 27 27 27 29 32 35 38 41 44 46 47 48 49 50 50 51 53 54 55 56 56 57 58 59 60 61 62 63 64 64 64 64 66 67 67 66 66 66 65 65 64
16 15 15 14 14 13 13 13 13 12 13 13 14 14 16 17 18 18 19 19 20 20 21 21 21 22 23 23 23 23 24 24 25 25 25 26 26 25 25 26 27 28 28 28 28 28 28 28 30 33 37 40 43 46 47 48 48 49 51 52 53 54 55 56 57 58 59 60 62 63 64 65 65 66 67 67 67 67 68 68 69 68 68 68 67 67 66
15 15 14 13 13 13 13 12 13 13 13 14 15 16 17 18 19 19 20 20 21 21 22 23 23 23 24 24 25 25 25 26 26 26 26 26 26 26 27 28 28 28 28 28 29 29 29 31 34 38 42 45 47 48 49 49 50 51 53 54 56 57 58 59 60 61 62 64 65 66 67 67 68 69 70 70 70 70 70 70 70 70 69 69 69 69 68
15 14 14 13 13 13 13 12 13 14 14 15 16 17 18 19 19 20 21 21 22 23 23 24 24 25 25 25 26 26 26 26 27 27 27 26 27 28 28 28 27 27 28 29 30 31 33 36 40 43 46 48 49 50 51 52 53 54 55 57 58 60 61 62 63 64 66 67 68 69 69 70 71 71 72 72 73 73 72 72 72 72 71 70 70 70 70
14 14 14 13 13 13 13 14 15 15 15 16 17 18 18 19 20 21 22 23 24 25 25 25 26 26 26 26 26 27 27 27 27 27 27 27 28 28 28 28 28 28 28 29 32 35 38 41 44 47 48 49 50 52 53 54 56 57 59 60 61 62 64 65 66 67 69 70 70 71 71 72 73 73 74 74 75 75 75 75 75 74 73 72 72 71 71
14 14 14 14 13 14 14 15 16 16 16 16 17 19 20 21 22 23 24 25 26 26 27 27 27 27 27 27 27 27 27 27 27 27 27 28 28 28 28 28 29 30 30 32 35 39 42 45 48 50 51 52 53 54 56 57 58 59 60 62 63 65 66 67 69 70 71 72 72 73 74 74 75 75 76 76 76 77 77 77 76 75 74 73 73 73 72
15 14 14 15 15 16 16 17 17 17 18 19 20 21 22 23 24 25 26 26 27 28 28 28 28 28 27 28 27 27 27 27 27 27 28 28 27 28 28 29 31 32 34 37 41 44 47 49 50 52 53 54 55 57 58 59 60 61 63 64 66 68 69 70 71 72 73 73 74 75 76 76 76 77 77 78 78 78 78 78 77 76 75 74 74 74 73
15 15 15 15 16 17 18 18 18 19 20 22 22 23 24 25 26 27 27 28 28 28 28 28 28 28 28 28 27 27 27 27 27 27 28 28 28 28 30 32 34 36 39 43 46 48 49 51 52 53 55 57 58 59 60 61 62 64 65 67 68 70 71 72 73 74 74 75 76 77 78 78 78 78 78 78 78 78 77 76 76 76 75 74 73 72 71
16 16 16 16 17 19 20 20 20 21 23 23 24 25 26 27 27 28 28 28 28 28 28 28 27 27 27 27 27 27 27 27 27 27 28 29 29 30 32 35 38 41 44 48 50 51 51 52 53 55 56 58 60 61 63 64 65 67 69 70 71 71 73 73 74 75 76 77 77 78 78 78 78 78 78 78 77 76 75 75 75 75 74 72 71 70 69
Wind_Direction
159 158 158 159 159 159 161 167 173 177 179 180 181 181 182 185 188 193 197 193 191 194 201 218 236 237 240 251 261 268 270 270 272 275 278 283 288 290 292 298 301 300 300 299 299 303 304 304 308 311 315 318 318 319 321 320 319 321 324 328 331 331 329 328 328 331 336 336 335 338 341 339 337 337 338 338 337 337 338 337 337 338 336 336 337 334 336
159 160 161 162 161 162 167 171 172 169 166 169 176 180 181 187 193 194 194 195 198 208 217 219 229 241 247 256 266 274 280 282 279 280 282 286 292 294 294 298 301 302 302 301 301 303 305 307 308 310 312 315 314 316 320 320 320 322 323 325 329 330 329 329 330 331 334 336 336 337 338 336 334 335 336 336 338 340 339 338 339 337 333 335 338 333 334
162 164 165 164 164 167 169 168 168 169 170 172 176 183 189 196 202 200 197 202 209 222 232 224 221 237 250 261 266 271 282 287 286 288 290 291 295 297 297 300 302 303 303 303 304 303 303 306 307 308 312 313 312 314 316 318 321 321 322 324 326 327 328 329 330 331 333 334 334 334 334 332 332 334 334 334 336 336 335 336 337 334 332 334 333 328 330
165 167 168 168 168 168 166 164 167 170 171 177 180 187 198 204 208 212 216 222 222 228 239 233 224 235 249 265 271 272 281 286 285 291 293 293 296 297 297 300 302 303 302 301 300 300 302 306 306 306 309 312 313 313 313 314 318 319 320 323 324 325 326 326 324 323 326 327 328 331 333 330 329 330 330 331 332 331 333 334 331 330 332 330 326 324 326
169 171 172 172 170 166 163 163 169 172 176 191 197 201 210 213 217 225 232 241 242 242 251 248 242 246 254 268 272 271 281 287 286 291 294 294 296 298 299 299 299 300 301 301 300 300 303 306 307 306 308 312 314 312 311 312 312 314 318 320 323 323 322 324 324 320 321 325 326 328 329 327 325 326 326 329 330 329 329 327 326 331 334 328 328 329 327
173 174 173 172 169 166 169 176 186 193 200 212 215 220 225 224 231 237 239 246 253 256 263 263 258 259 268 276 276 273 278 282 283 290 296 296 295 297 300 298 294 297 303 305 304 303 303 303 305 308 308 310 311 309 309 310 310 313 316 317 321 322 320 324 327 323 321 323 323 323 325 325 324 324 324 327 327 325 323 320 323 329 327 322 327 330 327
174 173 172 173 172 176 186 203 215 214 220 227 224 230 239 237 243 248 246 251 258 261 265 264 262 269 278 278 275 272 272 277 286 292 295 296 294 294 299 297 291 294 302 305 305 304 304 304 306 308 308 308 308 308 309 310 308 310 313 314 317 320 320 323 325 323 322 322 321 323 325 325 324 323 323 324 323 320 319 320 323 323 319 319 324 326 326
172 172 174 177 183 194 207 221 229 228 234 235 230 237 247 248 252 254 254 261 268 268 268 267 268 273 280 280 276 275 273 276 286 290 289 293 294 291 296 299 297 299 300 300 303 307 307 305 304 305 306 307 307 306 309 311 308 308 312 314 315 317 320 323 324 323 323 324 324 325 326 324 324 323 323 323 323 322 320 321 324 324 320 322 324 324 327
172 175 180 186 197 214 225 235 241 239 237 237 241 251 257 260 262 260 263 272 274 273 275 277 279 278 278 279 278 279 277 274 281 290 291 294 295 291 293 298 302 304 299 295 301 309 310 307 304 302 303 306 306 306 310 312 308 307 311 313 313 315 317 321 324 323 323 326 328 327 326 324 323 322 323 322 323 324 324 325 327 326 324 326 327 326 330
176 182 191 204 220 234 240 245 246 240 238 243 255 263 264 268 269 265 270 279 277 276 279 281 283 283 282 282 281 282 283 277 278 289 293 294 297 296 297 299 299 300 298 295 300 307 307 306 306 304 303 305 306 307 309 310 307 306 310 312 313 314 316 320 323 321 321 327 328 327 327 328 325 325 325 324 323 324 326 327 326 325 326 328 328 328 332
187 196 210 224 237 244 247 249 248 241 242 252 263 270 269 272 275 272 276 282 280 281 284 281 280 284 287 287 286 287 287 282 283 290 292 293 296 296 298 300 299 299 299 297 300 304 305 305 305 304 304 304 305 307 307 307 307 306 307 310 312 314 316 318 320 318 320 325 326 327 329 329 327 329 330 328 325 324 325 327 326 326 328 328 327 329 332
199 210 225 234 245 251 252 254 252 246 250 261 270 276 277 276 277 277 280 284 284 285 286 283 282 288 289 288 288 289 287 285 289 292 292 293 296 297 299 301 300 299 299 299 300 302 304 305 305 305 306 305 305 306 304 304 306 306 306 309 311 312 313 315 317 317 318 323 327 328 328 326 326 329 333 333 331 329 328 328 327 326 326 326 326 328 331
204 219 235 245 254 262 262 263 262 258 260 268 274 278 280 278 276 280 284 286 285 283 284 286 287 289 288 288 290 291 289 288 290 294 295 295 295 297 300 301 300 298 298 300 302 302 303 304 304 304 305 304 305 305 303 302 305 306 306 308 309 310 312 314 315 316 317 322 326 324 322 324 327 330 333 334 334 333 332 329 329 328 326 325 327 328 330
218 238 254 263 267 272 272 271 271 269 267 272 276 279 280 278 277 282 286 288 288 284 284 288 288 285 286 288 288 291 292 290 291 294 296 296 296 297 299 300 299 299 300 301 302 302 303 304 304 305 306 306 307 307 306 306 309 309 307 306 307 309 312 314 315 316 317 319 319 317 319 323 328 330 331 332 332 333 332 329 331 333 330 327 329 330 330
252 264 271 275 274 277 278 276 276 274 271 274 279 280 282 280 278 283 287 289 292 288 284 287 287 282 284 286 286 289 292 290 291 294 294 295 297 297 297 299 300 300 301 302 302 302 304 305 305 305 306 307 308 308 307 308 311 312 311 309 309 309 311 314 314 315 318 318 319 321 322 323 327 329 331 333 334 335 334 330 331 334 332 329 330 331 331
269 276 279 280 279 279 280 278 278 276 273 277 281 282 284 283 280 283 287 290 293 291 286 288 289 286 287 288 287 288 290 289 288 291 291 293 295 295 295 298 299 299 301 302 302 303 304 304 304 305 305 306 306 306 308 308 308 312 312 311 311 311 313 315 313 313 315 316 317 320 320 321 324 328 331 334 335 335 334 330 330 334 333 331 331 331 331
280 286 287 287 285 284 284 283 281 279 278 281 284 284 285 285 282 284 287 289 291 292 291 291 290 287 288 291 290 288 288 288 288 290 291 291 292 293 294 295 297 298 300 301 301 302 303 303 303 304 305 306 306 306 308 307 306 309 311 309 309 311 312 312 311 310 312 313 314 315 316 319 324 329 331 332 332 333 333 330 330 332 332 330 330 329 329
292 294 295 295 292 290 291 288 286 285 286 288 289 288 289 289 286 286 289 290 292 294 295 293 290 287 288 290 289 287 287 288 288 290 292 291 290 290 290 292 296 297 299 301 301 301 301 302 302 303 304 307 307 307 307 308 307 308 309 309 309 310 309 309 309 311 311 310 311 313 316 320 326 330 331 330 330 331 330 328 328 330 329 328 328 327 327
313 313 311 309 304 302 300 297 296 295 294 295 295 294 295 295 291 289 290 292 293 294 294 292 290 289 289 289 288 288 287 287 287 288 290 290 289 289 290 292 295 296 296 299 300 300 300 301 303 304 304 305 306 307 307 307 308 309 310 309 308 309 310 309 310 312 312 311 312 314 317 323 330 331 329 328 328 328 326 326 328 329 327 327 326 326 326
342 335 328 321 315 312 308 305 304 302 301 302 301 299 300 299 295 292 291 292 293 294 294 291 290 291 291 290 289 289 288 287 287 288 289 289 286 289 293 294 293 294 296 297 298 300 300 301 304 304 303 304 306 307 307 307 307 309 309 308 307 308 309 309 310 312 313 314 315 316 318 323 329 330 328 326 323 323 323 325 326 325 325 325 325 325 326
355 345 338 329 322 317 313 311 310 306 306 306 305 304 304 303 299 296 294 293 293 294 293 291 290 291 291 291 290 289 288 287 286 287 291 290 284 286 293 293 290 292 295 295 297 300 300 300 303 304 303 304 306 307 308 308 309 310 311 309 309 308 307 308 310 312 313 313 313 315 319 320 321 323 323 320 317 318 321 323 323 322 323 324 323 324 324
357 348 342 335 329 323 319 317 316 312 310 309 308 307 307 305 303 301 300 299 299 297 295 293 292 291 291 291 291 290 288 288 287 287 289 289 285 286 293 293 290 292 295 295 297 300 300 300 302 303 303 304 305 305 306 307 309 312 313 311 307 305 306 309 309 309 310 310 309 312 318 319 315 313 314 314 314 316 318 319 319 320 321 322 322 323 323
355 348 342 337 333 328 324 323 320 316 314 313 311 310 310 308 306 304 304 304 304 302 299 295 294 294 293 293 293 291 289 289 289 289 289 290 288 287 291 293 292 294 296 296 297 300 301 301 302 303 303 303 304 306 306 305 307 309 310 308 305 305 308 311 310 310 311 310 308 309 312 313 312 310 311 313 314 316 317 317 317 318 319 320 321 321 321
0 354 347 342 338 335 332 330 327 323 320 319 317 316 314 313 310 307 307 306 304 303 301 298 296 296 295 294 294 294 293 292 292 291 292 293 292 292 293 294 295 296 297 297 298 300 302 302 303 303 302 303 305 306 305 305 307 309 310 309 307 309 311 310 309 312 314 313 313 314 313 313 314 314 313 314 314 316 317 317 317 318 319 320 319 320 320
4 359 355 351 347 343 341 338 335 333 330 327 325 321 318 314 311 309 309 307 304 303 303 300 299 299 298 296 296 296 296 296 295 295 295 295 295 296 296 297 297 297 298 299 299 300 301 301 302 302 302 303 305 305 305 306 308 311 311 309 309 311 313 311 309 309 310 311 312 313 311 312 314 314 314 315 316 317 317 317 318 319 319 319 319 319 320
2 358 355 352 349 348 345 342 339 336 333 329 326 323 320 318 317 315 314 313 311 311 311 308 305 303 302 302 303 303 302 301 300 299 299 299 298 297 298 299 299 298 298 300 300 301 301 302 303 302 302 304 307 307 307 307 309 310 310 310 312 314 313 311 311 311 311 312 313 313 313 314 315 316 316 318 318 319 319 319 318 318 318 318 318 318 318
359 355 352 349 347 345 343 341 338 337 335 333 332 330 327 325 325 323 322 323 323 322 322 321 317 312 311 312 312 311 310 309 308 306 305 304 303 301 301 301 301 301 301 302 303 303 303 304 305 303 302 305 307 308 308 309 311 311 310 312 317 315 311 312 313 313 313 314 315 317 319 319 318 318 319 319 319 319 319 319 318 317 317 317 317 317 317
357 354 351 349 347 344 342 341 340 339 339 338 340 342 341 340 339 337 334 332 332 332 333 334 332 327 324 323 321 320 319 317 316 314 312 311 310 308 307 306 305 305 305 305 307 307 305 305 306 306 306 308 309 309 310 313 314 312 311 312 312 308 307 310 310 309 310 312 313 316 317 316 316 318 318 319 319 318 317 317 316 316 316 316 316 316 316
357 354 351 348 345 342 340 339 339 339 340 340 341 344 348 351 352 352 347 343 342 342 342 342 340 336 333 330 327 327 327 325 323 321 319 318 317 314 312 311 310 310 309 309 309 309 308 307 309 309 309 311 311 312 313 315 314 313 312 310 306 303 303 303 303 305 308 309 311 313 314 314 315 316 316 317 317 316 315 315 316 315 315 315 315 314 314
358 357 355 352 347 342 338 338 339 341 344 345 344 345 347 350 352 353 350 347 346 345 344 343 340 337 337 336 332 331 330 329 326 324 321 319 319 318 317 315 314 313 313 312 313 313 313 312 313 313 311 311 312 314 315 315 316 315 312 309 307 306 306 305 306 307 308 309 311 313 313 313 315 316 316 316 317 315 315 315 315 315 315 315 314 314 314
358 358 358 357 354 352 349 348 349 350 351 351 352 352 350 348 348 350 349 347 347 347 347 349 346 340 338 339 337 334 333 331 329 327 325 323 323 322 321 320 318 316 315 316 316 317 316 315 315 317 315 313 314 316 316 317 318 316 313 312 313 313 312 311 311 310 310 311 313 314 314 315 317 317 317 318 318 317 315 315 314 314 314 314 313 313 313
357 357 358 358 358 359 359 0 2 2 0 1 2 2 357 351 348 349 349 349 351 350 349 350 348 342 338 340 340 338 338 337 334 333 332 330 329 328 326 324 322 319 319 320 320 320 319 317 318 319 317 316 316 317 317 318 317 312 310 313 316 316 315 316 315 315 316 318 318 317 317 318 319 318 318 318 319 318 316 315 315 315 314 314 314 314 313
351 352 353 354 355 357 0 4 7 8 7 8 8 7 2 358 356 355 353 352 353 352 350 350 349 344 341 343 343 343 342 341 339 338 336 333 333 332 329 327 325 323 321 321 321 321 321 320 320 320 318 316 316 318 318 315 310 307 309 313 316 317 317 318 318 319 320 321 321 319 318 318 319 318 318 318 319 319 318 317 317 317 316 315 315 314 314
346 346 347 347 348 350 354 357 359 360 359 358 358 357 358 359 360 359 357 355 353 353 353 353 351 347 345 344 343 342 342 341 339 337 335 333 332 331 329 328 327 324 322 321 322 322 322 321 320 319 319 318 319 320 318 312 308 308 312 315 317 318 319 319 320 321 321 321 321 319 318 318 318 319 319 320 320 320 320 319 319 318 317 316 315 315 315
341 341 342 342 343 344 346 346 347 347 348 348 349 350 352 354 355 357 357 356 354 353 352 352 351 348 344 342 340 338 337 337 335 334 333 331 329 329 328 327 326 324 323 323 323 321 320 320 320 320 320 321 320 318 314 311 310 313 315 317 319 321 321 321 321 321 321 321 321 320 320 320 320 320 321 321 321 321 321 321 320 318 317 316 316 316 315
338 338 337 337 337 338 339 340 340 340 341 342 342 343 345 345 345 347 350 351 351 349 346 346 347 345 341 337 336 335 334 333 332 332 331 330 328 328 328 326 325 324 324 324 323 321 320 321 321 321 322 321 316 312 312 312 313 316 318 319 321 322 322 321 321 321 321 321 322 321 321 322 321 321 321 321 322 322 322 322 322 320 318 317 317 317 316
339 336 334 333 333 333 333 334 335 335 334 334 334 335 337 338 338 338 340 342 343 344 342 341 340 339 336 333 332 332 332 331 330 330 329 329 328 327 326 325 325 325 325 324 322 321 321 322 321 321 321 318 312 310 312 315 316 318 319 320 321 321 321 321 321 321 321 322 322 322 322 322 322 322 322 322 322 323 322 322 322 321 319 318 318 317 316
338 335 332 331 331 330 328 328 328 328 327 329 330 331 332 334 335 335 335 335 335 337 338 338 335 333 331 329 329 329 329 328 328 328 328 328 328 327 326 326 326 326 326 324 322 322 322 322 321 320 318 314 310 309 312 315 318 319 320 320 321 321 321 322 322 323 322 322 323 323 323 322 321 322 322 321 321 321 321 321 320 320 319 318 318 317 316
336 334 332 330 328 326 324 324 325 324 323 325 327 328 329 331 333 332 331 332 332 332 333 334 331 328 328 327 327 328 329 328 327 326 328 328 328 327 327 327 327 327 325 323 323 324 322 320 320 320 316 312 309 311 314 317 319 320 321 321 321 321 321 322 322 323 322 321 321 321 321 321 321 321 321 320 320 320 320 320 320 319 319 318 318 317 316
334 333 330 328 325 323 321 322 323 322 321 322 325 326 327 330 331 329 328 330 330 329 329 329 327 326 327 326 325 326 328 328 326 325 326 327 326 326 326 325 325 324 322 321 322 324 322 319 320 320 315 311 311 314 317 319 320 321 321 321 321 322 322 322 322 322 321 320 320 320 320 320 319 319 319 319 319 319 319 319 319 319 318 318 317 317 316
331 330 327 324 322 320 320 321 322 322 321 322 324 325 327 327 328 328 328 329 327 325 325 326 324 324 325 324 323 323 325 326 325 324 325 325 325 325 324 323 323 323 320 319 322 323 321 319 319 317 313 311 314 317 319 320 320 320 321 321 322 322 322 322 321 321 321 320 320 320 320 319 319 319 319 319 318 318 318 318 318 318 317 317 316 316 315
327 325 323 321 320 320 320 322 323 324 323 323 324 324 324 324 325 326 327 326 324 322 323 323 323 322 323 324 323 323 323 324 324 324 324 324 325 324 323 322 323 321 318 319 321 321 319 318 318 315 312 313 317 319 320 320 320 320 321 322 322 322 321 321 321 321 321 320 319 319 319 319 319 318 318 318 317 317 317 317 316 316 316 316 316 315 315
326 324 323 323 323 323 324 324 325 325 325 325 324 323 323 324 324 324 323 322 322 322 322 322 322 322 323 323 323 323 323 323 324 324 323 323 323 323 323 322 321 318 318 319 320 319 317 317 316 313 313 316 319 320 320 320 320 320 321 321 321 321 321 321 320 320 320 320 319 319 319 318 318 318 318 317 316 316 316 316 316 315 315 315 315 315 315
327 326 326 326 325 325 326 325 325 326 325 323 322 322 322 323 322 321 320 320 321 320 321 322 322 322 322 322 322 322 323 323 323 323 322 322 322 322 321 320 319 318 319 319 318 317 317 316 313 312 315 318 319 320 320 321 321 321 321 321 321 321 321 321 320 320 320 320 319 319 319 319 318 318 318 317 317 316 316 315 315 315 315 314 314 314 314
328 328 329 328 326 327 327 326 326 327 325 321 320 320 320 320 320 319 319 320 320 320 321 322 322 320 320 321 321 321 321 322 322 321 321 321 321 320 318 318 319 319 319 318 318 318 317 315 315 316 318 320 320 321 321 321 321 320 320 320 321 321 321 320 320 320 320 320 320 320 319 319 318 318 318 317 317 316 316 315 315 315 314 314 314 313 314
330 329 330 329 327 327 327 326 326 326 323 320 319 320 320 319 319 320 320 320 321 320 321 321 320 319 319 319 320 320 320 320 320 320 320 320 319 318 318 319 319 319 319 319 318 317 316 316 318 319 320 320 320 320 320 320 320 320 320 320 320 321 321 321 320 320 320 320 320 319 319 318 318 317 317 316 316 316 316 315 315 314 314 313 313 313 313
330 329 331 331 328 327 328 327 325 323 322 321 322 323 323 322 321 321 321 321 320 320 319 319 319 318 318 318 319 319 319 320 319 319 319 319 318 318 319 319 319 318 319 318 318 317 317 317 319 320 320 320 320 320 320 320 320 320 320 320 320 320 320 320 320 320 320 319 319 318 318 317 317 317 316 316 316 316 315 315 315 314 314 313 313 313 313
328 328 330 330 327 327 328 328 326 326 326 326 326 325 324 323 322 322 321 320 319 319 318 318 318 318 318 318 319 319 319 319 319 318 318 318 318 318 319 319 318 318 317 316 316 316 318 319 319 319 320 320 320 320 320 321 321 321 320 320 320 320 320 320 319 319 319 318 318 317 317 317 317 316 316 315 315 315 315 315 314 314 314 313 312 312 312
329 328 328 328 327 327 327 328 328 327 326 326 325 323 322 321 321 321 320 320 319 318 317 317 318 318 318 318 319 319 318 318 318 318 319 319 318 318 318 318 318 317 317 316 316 318 318 319 319 319 320 320 320 320 320 320 320 320 320 320 320 320 320 319 319 318 318 317 317 317 317 316 316 316 315 315 315 315 315 315 314 314 313 312 312 311 311
329 328 328 328 326 325 326 326 325 323 323 323 323 322 321 320 320 320 319 319 318 317 317 317 317 317 318 318 319 319 318 317 318 318 318 318 318 318 318 317 317 317 317 317 318 319 319 319 319 319 320 320 320 320 320 320 320 320 320 320 320 319 319 318 318 317 317 317 317 317 316 316 316 316 316 316 315 315 314 314 314 313 313 312 312 311 311
327 327 327 327 325 324 324 322 320 318 319 321 321 320 319 318 318 319 318 317 317 317 317 317 318 318 319 319 318 317 317 317 318 318 318 317 318 318 317 316 315 316 317 318 318 319 319 319 319 319 320 320 320 320 319 320 320 320 320 319 318 318 318 317 317 317 317 317 317 317 317 317 317 317 316 316 316 315 315 314 314 314 314 313 313 312 312
326 325 324 325 326 326 324 321 318 317 318 319 319 318 318 318 318 318 318 317 316 317 318 318 318 319 318 317 317 316 317 317 318 318 318 317 317 316 315 315 315 317 317 318 319 319 318 319 319 319 319 319 319 319 319 319 319 319 319 318 318 318 318 318 318 318 318 318 318 318 318 318 318 318 318 317 317 317 316 316 315 315 315 314 314 314 314